Alamogordo, NM

5:49 AM MST on November 20, 2019 (GMT -0700)
Alamogordo-White Sands Regional

Weather History for KALM - September, 2019

Change the Weather History Date:

Thursday, September 12, 2019

  Actual Average Record
Temperature  
Mean Temperature 78 °F -  
Max Temperature 91 °F 87 °F 98 °F (1974)
Min Temperature 64 °F 60 °F 50 °F (1968)
Cooling Degree Days 12    
Growing Degree Days 28 (Base 50)    
Moisture  
Dew Point 51 °F    
Average Humidity 43    
Maximum Humidity 73    
Minimum Humidity 16    
Precipitation  
Precipitation 0.00 in - - ()
Sea Level Pressure  
Sea Level Pressure 30.12 in    
Wind  
Wind Speed 5 mph ()    
Max Wind Speed 13 mph    
Max Gust Speed 17 mph    
Visibility 10.0 miles    
Events      
Averages and records for this station are not official NWS values.
T = Trace of Precipitation, MM = Missing Value Source: Averaged Metar Reports

Daily Weather History Graph

Daily Weather History Graph

Search for Another Location

Airport or City:

Astronomy

Sep. 12, 2019 Rise Set
Actual Time 6:45 AM MDT 7:14 PM MDT
Civil Twilight 6:20 AM MDT 7:39 PM MDT
Nautical Twilight 5:51 AM MDT 8:08 PM MDT
Astronomical Twilight 5:22 AM MDT 8:37 PM MDT
Moon 6:53 PM MDT (9/12) 5:16 AM MDT (9/12)
Length of Visible Light 13h 18m
Length of Day
12h 28m
Waxing Gibbous, 98% of the Moon is Illuminated
Sep 12
Waxing Gibbous
Sep 13
Full
Sep 21
Last Quarter
Sep 28
New
Oct 5
First Quarter

Hourly Weather History & Observations

Time (MDT) Temp. Heat Index Dew Point Humidity Pressure Visibility Wind Dir Wind Speed Gust Speed Precip Events Conditions
12:15 AM 73.4 °F - 53.6 °F 50% 30.08 in 10.0 mi South 9.2 mph - N/A   Clear
12:35 AM 73.4 °F - 53.6 °F 50% 30.08 in 10.0 mi SSE 8.1 mph - N/A   Clear
12:55 AM 71.6 °F - 53.6 °F 53% 30.08 in 10.0 mi South 4.6 mph - N/A   Clear
1:35 AM 69.8 °F - 55.4 °F 60% 30.09 in 10.0 mi South 4.6 mph - N/A   Clear
1:55 AM 68.0 °F - 55.4 °F 64% 30.09 in 10.0 mi SSE 5.8 mph - N/A   Clear
2:15 AM 68.0 °F - 55.4 °F 64% 30.09 in 10.0 mi SSE 4.6 mph - N/A   Clear
2:35 AM 68.0 °F - 55.4 °F 64% 30.09 in 10.0 mi South 3.5 mph - N/A   Clear
2:55 AM 68.0 °F - 53.6 °F 60% 30.09 in 10.0 mi South 4.6 mph - N/A   Clear
3:15 AM 68.0 °F - 55.4 °F 64% 30.09 in 10.0 mi South 4.6 mph - N/A   Clear
3:35 AM 66.2 °F - 55.4 °F 68% 30.10 in 10.0 mi South 6.9 mph - N/A   Clear
3:55 AM 66.2 °F - 55.4 °F 68% 30.11 in 10.0 mi SSE 8.1 mph - N/A   Scattered Clouds
4:15 AM 66.2 °F - 57.2 °F 73% 30.10 in 10.0 mi SSE 6.9 mph - N/A   Partly Cloudy
4:35 AM 66.2 °F - 55.4 °F 68% 30.11 in 10.0 mi SSE 6.9 mph - N/A   Clear
4:55 AM 68.0 °F - 55.4 °F 64% 30.11 in 10.0 mi SSE 5.8 mph - N/A   Clear
5:15 AM 68.0 °F - 55.4 °F 64% 30.11 in 10.0 mi SSE 8.1 mph - N/A   Clear
5:35 AM 66.2 °F - 55.4 °F 68% 30.12 in 10.0 mi South 6.9 mph - N/A   Clear
5:55 AM 66.2 °F - 55.4 °F 68% 30.12 in 10.0 mi SSE 3.5 mph - N/A   Clear
6:15 AM 66.2 °F - 55.4 °F 68% 30.12 in 10.0 mi SSW 4.6 mph - N/A   Clear
6:35 AM 66.2 °F - 55.4 °F 68% 30.13 in 10.0 mi Calm Calm - N/A   Clear
6:55 AM 64.4 °F - 55.4 °F 73% 30.13 in 10.0 mi Calm Calm - N/A   Clear
7:15 AM 66.2 °F - 55.4 °F 68% 30.14 in 10.0 mi South 3.5 mph - N/A   Clear
7:35 AM 68.0 °F - 55.4 °F 64% 30.15 in 10.0 mi Calm Calm - N/A   Clear
7:55 AM 69.8 °F - 57.2 °F 64% 30.16 in 10.0 mi Calm Calm - N/A   Clear
8:15 AM 71.6 °F - 57.2 °F 60% 30.16 in 10.0 mi Calm Calm - N/A   Clear
8:35 AM 73.4 °F - 59.0 °F 61% 30.17 in 10.0 mi NNW 3.5 mph - N/A   Clear
8:55 AM 73.4 °F - 59.0 °F 61% 30.17 in 10.0 mi North 4.6 mph - N/A   Clear
9:15 AM 75.2 °F - 59.0 °F 57% 30.18 in 10.0 mi NNE 5.8 mph - N/A   Clear
9:35 AM 77.0 °F - 57.2 °F 50% 30.18 in 10.0 mi NE 3.5 mph - N/A   Clear
9:55 AM 77.0 °F - 57.2 °F 50% 30.18 in 10.0 mi Calm Calm - N/A   Clear
10:15 AM 78.8 °F - 57.2 °F 47% 30.18 in 10.0 mi North 3.5 mph - N/A   Clear
10:35 AM 80.6 °F 80.8 °F 57.2 °F 45% 30.18 in 10.0 mi Calm Calm - N/A   Clear
10:55 AM 80.6 °F 80.8 °F 57.2 °F 45% 30.18 in 10.0 mi NNW 6.9 mph - N/A   Clear
11:15 AM 82.4 °F 82.0 °F 57.2 °F 42% 30.18 in 10.0 mi Calm Calm - N/A   Clear
11:35 AM 82.4 °F 81.7 °F 55.4 °F 39% 30.18 in 10.0 mi NNW 6.9 mph - N/A   Clear
11:55 AM 84.2 °F 83.0 °F 55.4 °F 37% 30.18 in 10.0 mi Calm Calm - N/A   Clear
12:15 PM 84.2 °F 83.0 °F 55.4 °F 37% 30.17 in 10.0 mi Calm Calm - N/A   Clear
12:35 PM 86.0 °F 84.5 °F 55.4 °F 35% 30.17 in 10.0 mi South 5.8 mph - N/A   Clear
12:55 PM 86.0 °F 84.2 °F 53.6 °F 33% 30.16 in 10.0 mi West 5.8 mph - N/A   Clear
1:15 PM 86.0 °F - 51.8 °F 31% 30.16 in 10.0 mi WSW 5.8 mph - N/A   Clear
1:35 PM 89.6 °F - 50.0 °F 26% 30.15 in 10.0 mi SSE 4.6 mph - N/A   Partly Cloudy
1:55 PM 89.6 °F - 48.2 °F 24% 30.14 in 10.0 mi West 6.9 mph - N/A   Partly Cloudy
2:15 PM 89.6 °F - 48.2 °F 24% 30.13 in 10.0 mi NW 3.5 mph - N/A   Partly Cloudy
2:55 PM 91.4 °F - 46.4 °F 21% 30.11 in 10.0 mi North 8.1 mph - N/A   Clear
3:15 PM 91.4 °F - 46.4 °F 21% 30.10 in 10.0 mi WNW 9.2 mph - N/A   Clear
3:35 PM 91.4 °F - 44.6 °F 20% 30.09 in 10.0 mi SW 6.9 mph - N/A   Clear
3:55 PM 91.4 °F - 44.6 °F 20% 30.09 in 10.0 mi NW 6.9 mph - N/A   Clear
4:15 PM 91.4 °F - 42.8 °F 18% 30.08 in 10.0 mi NW 12.7 mph - N/A   Clear
4:35 PM 91.4 °F - 41.0 °F 17% 30.08 in 10.0 mi WNW 9.2 mph 16.1 mph N/A   Clear
4:55 PM 91.4 °F - 41.0 °F 17% 30.07 in 10.0 mi West 5.8 mph - N/A   Clear
5:15 PM 91.4 °F - 41.0 °F 17% 30.07 in 10.0 mi NW 11.5 mph 17.3 mph N/A   Clear
5:35 PM 91.4 °F - 39.2 °F 16% 30.07 in 10.0 mi WNW 10.4 mph - N/A   Clear
5:55 PM 89.6 °F - 39.2 °F 17% 30.07 in 10.0 mi NNW 8.1 mph - N/A   Clear
6:15 PM 89.6 °F - 39.2 °F 17% 30.08 in 10.0 mi Calm Calm - N/A   Clear
6:35 PM 89.6 °F - 39.2 °F 17% 30.08 in 10.0 mi NW 4.6 mph - N/A   Clear
6:55 PM 89.6 °F - 39.2 °F 17% 30.08 in 10.0 mi West 3.5 mph - N/A   Clear
7:15 PM 86.0 °F - 41.0 °F 20% 30.08 in 10.0 mi NNW 3.5 mph - N/A   Clear
7:35 PM 84.2 °F - 42.8 °F 23% 30.09 in 10.0 mi North 3.5 mph - N/A   Clear
7:55 PM 80.6 °F - 44.6 °F 28% 30.10 in 10.0 mi NE 4.6 mph - N/A   Clear
8:15 PM 77.0 °F - 46.4 °F 34% 30.10 in 10.0 mi ENE 8.1 mph - N/A   Clear
8:35 PM 77.0 °F - 44.6 °F 32% 30.11 in 10.0 mi ENE 5.8 mph - N/A   Clear
8:55 PM 75.2 °F - 44.6 °F 34% 30.12 in 10.0 mi East 5.8 mph - N/A   Clear
9:15 PM 77.0 °F - 44.6 °F 32% 30.12 in 10.0 mi NE 4.6 mph - N/A   Clear
9:35 PM 77.0 °F - 46.4 °F 34% 30.12 in 10.0 mi ENE 8.1 mph - N/A   Clear
10:15 PM 80.6 °F - 44.6 °F 28% 30.13 in 10.0 mi Calm Calm - N/A   Partly Cloudy
10:35 PM 77.0 °F - 44.6 °F 32% 30.13 in 10.0 mi WNW 3.5 mph - N/A   Scattered Clouds
10:55 PM 77.0 °F - 46.4 °F 34% 30.13 in 10.0 mi WNW 3.5 mph - N/A   Partly Cloudy
11:15 PM 75.2 °F - 48.2 °F 38% 30.13 in 10.0 mi NNW 4.6 mph - N/A   Clear
11:35 PM 75.2 °F - 48.2 °F 38% 30.13 in 10.0 mi WNW 3.5 mph - N/A   Clear
11:55 PM 75.2 °F - 48.2 °F 38% 30.13 in 10.0 mi WSW 3.5 mph - N/A   Clear